This is the latest recevied weather packets stored in our database for station/object IZ5MJO-13. If no packets are shown the sender has not sent any weather packets the latest 10 day(s).
| Time | Temp. | Humidity | Pressure | Rain* | Wind** | Luminosity | Snow |
|---|---|---|---|---|---|---|---|
| 1787750390 | 36.67° C | 35% | 1007.2 hPa | - | - | - | - |
| 1787749489 | 36.11° C | 38% | 1007.2 hPa | - | - | - | - |
| 1787748589 | 36.67° C | 38% | 1007.4 hPa | - | - | - | - |
| 1787747689 | 36.67° C | 36% | 1007.5 hPa | - | - | - | - |
| 1787746788 | 35° C | 39% | 1007.5 hPa | - | - | - | - |
| 1787745888 | 34.44° C | 43% | 1007.7 hPa | - | - | - | - |
| 1787744993 | 33.89° C | 41% | 1007.8 hPa | - | - | - | - |
| 1787744093 | 33.33° C | 43% | 1007.7 hPa | - | - | - | - |
| 1787743193 | 32.78° C | 49% | 1007.9 hPa | - | - | - | - |
| 1787742292 | 31.67° C | 48% | 1008.1 hPa | - | - | - | - |
| 1787741392 | 30° C | 48% | 1008.2 hPa | - | - | - | - |
| 1787740491 | 29.44° C | 49% | 1008.2 hPa | - | - | - | - |
| 1787739591 | 28.89° C | 50% | 1008.5 hPa | - | - | - | - |
| 1787738691 | 28.89° C | 51% | 1008.4 hPa | - | - | - | - |
| 1787737790 | 28.89° C | 52% | 1008.4 hPa | - | - | - | - |
| 1787737039 | 27.22° C | 55% | 1008.4 hPa | - | - | - | - |
| 1787737024 | 27.22° C | 56% | 1008.2 hPa | - | - | - | - |
| 1787737018 | 26.67° C | 56% | 1008 hPa | - | - | - | - |
| 1787737010 | 25.56° C | 57% | 1007.9 hPa | - | - | - | - |
| 1787737004 | 25.56° C | 58% | 1008 hPa | - | - | - | - |
| 1787736997 | 25° C | 59% | 1007.9 hPa | - | - | - | - |
| 1787736990 | 25° C | 61% | 1007.8 hPa | - | - | - | - |
| 1787736983 | 24.44° C | 60% | 1007.6 hPa | - | - | - | - |
| 1787736966 | 23.89° C | 63% | 1007.6 hPa | - | - | - | - |
| 1787736936 | 23.89° C | 60% | 1007.5 hPa | - | - | - | - |
* Rain since midnight (hover to see other rain measurements)
** Current wind speed in m/s (hover to see current wind gust speed)